Вернуться в каталог

SIRIUS FM-5

АктивенСвязьGEO
NORAD 35493·PAYLOAD·🇺🇸 United States

Запущен Jun 30, 2009 с Baikonur Cosmodrome

Loading…

TLE

СвежийSource: Space-Track

Эпоха: Sep 14, 2026, 11:54 UTC

1 35493U 09034A   26257.49628133 -.00000208  00000-0  00000-0 0  9999
2 35493   0.0443 267.6750 0000887 160.0381  18.2766  1.00271199 47531

Отслеживайте SIRIUS FM-5 в реальном времени с AllMySat

Download on the App Store